GW1930 Weather Reports


time (UTC)temp
F
wind
direction
speed
knots
gust
knots
rain 1hr
in
rain 24hr
in
rain mn
in
humidity
%
barometer
mb
20260504081541 49 0 0.0 0.0 0.00 0.00 0.00 93 1017.8
20260504044542 53 0 0.0 0.0 0.00 0.00 0.00 89 1018.9
20260504043049 53 0 0.0 0.0 0.00 0.00 0.00 89 1018.9
20260504041541 53 0 0.0 0.0 0.00 0.00 0.00 88 1019.1
20260504040051 54 0 0.0 0.0 0.00 0.00 0.00 87 1019.0
20260504034543 55 0 0.0 0.0 0.00 0.00 0.00 85 1019.1
20260504033045 55 0 0.0 0.0 0.00 0.00 0.00 86 1019.1
20260504031548 56 0 0.0 0.0 0.00 0.00 0.00 84 1019.3
20260504030046 56 0 0.0 0.0 0.00 0.00 0.00 83 1018.9
20260504024547 56 0 0.0 0.0 0.00 0.00 0.00 82 1018.9
20260504023043 57 0 0.0 0.0 0.00 0.00 0.00 81 1019.0
20260504021538 58 0 0.0 0.0 0.00 0.00 0.00 80 1018.9
20260504020045 58 0 0.0 0.0 0.00 0.00 0.00 77 1018.7
20260504014541 59 0 0.0 0.0 0.00 0.00 0.00 78 1018.4
20260504013039 60 0 0.0 0.0 0.00 0.00 0.00 76 1018.3
20260504011544 61 0 0.0 0.0 0.00 0.00 0.00 73 1018.3
20260504010041 63 0 0.0 0.0 0.00 0.00 0.00 71 1018.1
20260504004547 64 0 0.0 0.0 0.00 0.00 0.00 69 1018.0
20260504003051 66 0 0.0 0.0 0.00 0.00 0.00 62 1017.8
20260504001545 68 0 0.0 0.0 0.00 0.00 0.00 57 1017.7
20260504000112 70 0 0.0 0.0 0.00 0.00 0.00 50 1017.8
20260503234551 72 0 0.0 0.0 0.00 0.00 0.00 44 1017.9
20260503233044 74 0 0.0 0.0 0.00 0.00 0.00 43 1017.8
20260503231546 75 0 0.0 0.0 0.00 0.00 0.00 38 1017.8
20260503230044 75 0 0.0 0.0 0.00 0.00 0.00 36 1017.8
20260503224542 76 0 0.0 0.0 0.00 0.00 0.00 36 1018.0
20260503223051 76 0 0.0 0.0 0.00 0.00 0.00 35 1017.9
20260503221554 76 0 0.0 0.0 0.00 0.00 0.00 34 1018.1
20260503220050 76 0 0.0 0.0 0.00 0.00 0.00 33 1018.2
20260503214546 76 0 0.0 0.0 0.00 0.00 0.00 35 1018.3
20260503213046 76 0 0.0 0.0 0.00 0.00 0.00 37 1018.4
20260503211601 76 0 0.0 0.0 0.00 0.00 0.00 37 1018.5
20260503210049 75 0 0.0 0.0 0.00 0.00 0.00 34 1018.7
20260503204548 75 0 0.0 0.0 0.00 0.00 0.00 33 1018.9
20260503203104 76 0 0.0 0.0 0.00 0.00 0.00 34 1019.2
20260503201558 76 0 0.0 0.0 0.00 0.00 0.00 34 1019.4
20260503200048 76 0 0.0 0.0 0.00 0.00 0.00 35 1019.9
20260503194553 74 0 0.0 0.0 0.00 0.00 0.00 38 1020.0
20260503193051 75 0 0.0 0.0 0.00 0.00 0.00 40 1020.3
20260503191547 75 0 0.0 0.0 0.00 0.00 0.00 37 1020.5
20260503190044 75 0 0.0 0.0 0.00 0.00 0.00 36 1020.7
20260503184546 75 0 0.0 0.0 0.00 0.00 0.00 35 1021.0
20260503183046 74 0 0.0 0.0 0.00 0.00 0.00 32 1021.3
20260503181549 74 0 0.0 0.0 0.00 0.00 0.00 37 1021.3
20260503180044 73 0 0.0 0.0 0.00 0.00 0.00 41 1021.4
20260503174548 73 0 0.0 0.0 0.00 0.00 0.00 37 1021.8
20260503173056 74 0 0.0 0.0 0.00 0.00 0.00 35 1022.0
20260503171544 73 0 0.0 0.0 0.00 0.00 0.00 36 1022.0